Flag Weather past 2 weeks in French Lick, Indiana, U.S.A.

Now
27 °F

Sunny.


Feels Like: 27 °F
Forecast: 25 / 42 °F
Wind: No wind

Location: Huntingburg Airport

Current Time: Nov 26, 2014 at 9:19:15 AM

Latest Report: Nov 26, 2014 at 8:55 AM


Visibility: 3 mi

Pressure: 30.16 "Hg

Humidity: 93%

Dew point: 25 °F

Location of French LickLocation

Historic Weather in French Lick — Graph

°F

French Lick temperature yesterday

Maximum temperature yesterday: 43 °F (at 1:55 PM)
Minimum temperature yesterday: 27 °F (at 11:55 PM)
Average temperature yesterday: 35 °F

Past Weeks' High & Low Weather Summary

 TemperatureHumidityPressure
High63 °F (Nov 22, 2:55 PM)94% (Nov 23, 5:55 PM)30.51 "Hg (Nov 23, 5:55 PM)
Low9 °F (Nov 18, 7:35 AM)39% (Nov 21, 2:15 PM)29.26 "Hg (Nov 23, 8:55 PM)
Average34 °F68%30.15 "Hg
* Reported Nov 11 8:15 AM — Nov 26 8:15 AM, French Lick, Weather by CustomWeather, © 2014

Note: Actual official high and low records may vary slightly from our data, if they occured in-between our weather recording intervals... More about our weather records

Advertising

French Lick weather history for previous 24 hours

 ConditionsComfort  
Time TempWeatherWind HumidityBarometerVisibility
8:15 AM
Nov 26
23 °FSunny.No wind86%30.16 "Hg2 mi
7:55 AM23 °FSunny.5 mph86%30.15 "Hg2 mi
7:35 AM25 °FClear.3 mph80%30.15 "Hg4 mi
7:15 AM25 °FClear.3 mph80%30.14 "Hg5 mi
6:55 AM25 °FClear.3 mph80%30.14 "Hg5 mi
6:35 AM25 °FPassing clouds.3 mph86%30.14 "Hg6 mi
6:15 AM25 °FPassing clouds.No wind86%30.14 "Hg7 mi
5:55 AM25 °FOvercast.3 mph86%30.14 "Hg5 mi
5:35 AM23 °FPassing clouds.5 mph86%30.15 "Hg3 mi
5:15 AM25 °FClear.No wind80%30.15 "Hg3 mi
4:55 AM23 °FClear.No wind86%30.15 "Hg3 mi
4:35 AM23 °FClear.3 mph86%30.15 "Hg4 mi
4:15 AM25 °FClear.3 mph86%30.15 "Hg5 mi
3:55 AM25 °FClear.No wind86%30.15 "Hg5 mi
3:35 AM25 °FClear.3 mph86%30.16 "Hg5 mi
3:15 AM25 °FClear.3 mph80%30.16 "Hg5 mi
2:55 AM25 °FClear.3 mph86%30.16 "Hg5 mi
2:35 AM25 °FClear.5 mph86%30.16 "Hg6 mi
1:55 AM25 °FClear.No wind86%30.17 "Hg7 mi
1:35 AM27 °FClear.3 mph80%30.17 "Hg9 mi
1:15 AM27 °FClear.3 mph80%30.18 "Hg10 mi
12:55 AM27 °FClear.5 mph80%30.18 "Hg10 mi
12:35 AM27 °FClear.3 mph80%30.19 "Hg10 mi
12:15 AM27 °FClear.3 mph80%30.20 "Hg10 mi
11:55 PM
Nov 25
27 °FClear.5 mph80%30.20 "Hg10 mi
11:35 PM28 °FClear.5 mph80%30.20 "Hg10 mi
11:15 PM28 °FClear.6 mph80%30.20 "Hg10 mi
10:35 PM28 °FClear.6 mph86%30.20 "Hg10 mi
10:15 PM30 °FClear.6 mph80%30.21 "Hg10 mi
9:55 PM30 °FClear.7 mph80%30.22 "Hg10 mi
9:35 PM30 °FClear.6 mph80%30.21 "Hg10 mi
9:15 PM30 °FClear.6 mph80%30.21 "Hg10 mi
8:55 PM30 °FClear.7 mph80%30.21 "Hg10 mi
8:35 PM30 °FClear.6 mph80%30.21 "Hg10 mi
8:15 PM30 °FClear.6 mph80%30.21 "Hg10 mi
7:55 PM32 °FClear.3 mph75%30.20 "Hg10 mi
7:35 PM32 °FClear.5 mph75%30.19 "Hg10 mi
7:15 PM32 °FClear.5 mph75%30.19 "Hg10 mi
6:55 PM32 °FClear.6 mph75%30.19 "Hg10 mi
6:35 PM32 °FClear.6 mph75%30.18 "Hg10 mi
5:55 PM34 °FPassing clouds.7 mph70%30.18 "Hg10 mi
5:35 PM36 °FOvercast.9 mph70%30.18 "Hg10 mi
5:15 PM36 °FOvercast.7 mph70%30.18 "Hg10 mi
4:55 PM37 °FOvercast.7 mph65%30.17 "Hg10 mi
4:35 PM37 °FOvercast.10 mph65%30.16 "Hg10 mi
3:55 PM39 °FScattered clouds.9 mph61%30.16 "Hg10 mi
3:35 PM41 °FOvercast.9 mph57%30.15 "Hg10 mi
3:15 PM41 °FScattered clouds.8 mph57%30.15 "Hg10 mi
2:55 PM39 °FSunny.5 mph61%30.15 "Hg10 mi
2:35 PM39 °FSunny.6 mph61%30.15 "Hg10 mi
2:15 PM43 °FScattered clouds.8 mph53%30.15 "Hg10 mi
1:55 PM43 °FPassing clouds.9 mph53%30.16 "Hg10 mi
1:35 PM41 °FSunny.7 mph57%30.16 "Hg10 mi
1:15 PM41 °FSunny.9 mph57%30.17 "Hg10 mi
12:55 PM41 °FSunny.9 mph57%30.17 "Hg10 mi
12:35 PM41 °FSunny.9 mph57%30.17 "Hg10 mi
12:15 PM41 °FSunny.12 mph57%30.18 "Hg10 mi
11:55 AM39 °FSunny.13 mph56%30.19 "Hg10 mi
11:35 AM39 °FSunny.13 mph56%30.19 "Hg10 mi
10:55 AM37 °FSunny.13 mph65%30.19 "Hg10 mi
10:35 AM37 °FSunny.14 mph65%30.19 "Hg10 mi
10:15 AM37 °FSunny.9 mph65%30.17 "Hg10 mi
9:55 AM36 °FSunny.7 mph70%30.16 "Hg10 mi
9:35 AM36 °FSunny.6 mph65%30.14 "Hg10 mi
9:15 AM34 °FSunny.6 mph70%30.13 "Hg10 mi
Weather by CustomWeather, © 2014

See weather overviewHow to use our weather pages